TimeEST,TemperatureF,Dew PointF,Humidity,Sea Level PressureIn,VisibilityMPH,Wind Direction,Wind SpeedMPH,Gust SpeedMPH,PrecipitationIn,Events,Conditions,WindDirDegrees,DateUTC
12:53 AM,15.1,1.0,54,30.33,10.0,NW,11.5,-,N/A,,Clear,320,2009-02-06 05:53:00
1:53 AM,15.1,1.0,54,30.35,10.0,NW,9.2,-,N/A,,Clear,310,2009-02-06 06:53:00
2:53 AM,14.0,1.0,56,30.34,10.0,Calm,Calm,-,N/A,,Clear,0,2009-02-06 07:53:00
3:53 AM,12.9,-0.0,56,30.36,10.0,WNW,6.9,-,N/A,,Clear,300,2009-02-06 08:53:00
4:53 AM,10.9,-0.0,61,30.35,10.0,WNW,3.5,-,N/A,,Clear,290,2009-02-06 09:53:00
5:53 AM,7.0,-2.0,67,30.37,10.0,Calm,Calm,-,N/A,,Clear,0,2009-02-06 10:53:00
6:53 AM,10.0,-0.9,61,30.38,10.0,West,3.5,-,N/A,,Clear,280,2009-02-06 11:53:00
7:53 AM,16.0,1.9,54,30.38,10.0,WNW,5.8,-,N/A,,Mostly Cloudy,300,2009-02-06 12:53:00
8:53 AM,18.0,3.9,54,30.40,10.0,WNW,6.9,-,N/A,,Clear,300,2009-02-06 13:53:00
9:53 AM,19.0,6.1,57,30.40,10.0,WNW,8.1,-,N/A,,Scattered Clouds,300,2009-02-06 14:53:00
10:53 AM,21.0,5.0,50,30.40,10.0,West,11.5,-,N/A,,Overcast,280,2009-02-06 15:53:00
11:53 AM,23.0,8.1,53,30.38,10.0,West,13.8,-,N/A,,Clear,280,2009-02-06 16:53:00
12:53 PM,24.1,9.0,53,30.36,10.0,WNW,12.7,-,N/A,,Clear,290,2009-02-06 17:53:00
1:53 PM,26.1,10.9,53,30.35,10.0,West,12.7,20.7,N/A,,Clear,280,2009-02-06 18:53:00
3:53 PM,27.0,14.0,58,30.35,10.0,West,8.1,-,N/A,,Clear,260,2009-02-06 20:53:00
4:53 PM,26.1,12.0,55,30.34,10.0,West,8.1,17.3,N/A,,Clear,270,2009-02-06 21:53:00
5:53 PM,25.0,12.9,60,30.35,10.0,West,5.8,-,N/A,,Clear,280,2009-02-06 22:53:00
6:53 PM,24.1,12.9,62,30.38,10.0,West,4.6,-,N/A,,Clear,260,2009-02-06 23:53:00
7:53 PM,23.0,12.9,65,30.38,10.0,West,4.6,-,N/A,,Clear,280,2009-02-07 00:53:00
8:53 PM,23.0,12.0,63,30.39,10.0,WNW,5.8,-,N/A,,Clear,290,2009-02-07 01:53:00
9:53 PM,23.0,12.9,65,30.39,10.0,WSW,3.5,-,N/A,,Clear,250,2009-02-07 02:53:00
10:53 PM,19.0,12.0,74,30.41,10.0,NW,4.6,-,N/A,,Clear,310,2009-02-07 03:53:00
11:53 PM,16.0,9.0,74,30.41,10.0,Calm,Calm,-,N/A,,Clear,0,2009-02-07 04:53:00